Tracking 19709 objects as of 20-Jun-2019
HD Live streaming from Space Station
objects crossing your sky now

UPPER FREE FLYER

Track UPPER FREE FLYER now!
10-day predictions


NORAD ID: 43763
Int'l Code: 2018-099F
Perigee: 578.7 km
Apogee: 596.9 km
Inclination: 97.7 °
Period: 96.3 minutes
Semi major axis: 6958 km
RCS: Unknown
Launch date: December 3, 2018
Source: United States (US)
Launch site: AIR FORCE WESTERN TEST RANGE (AFWTR)
aabbcc
Your satellite tracking list
Your tracking list is empty




NASA's NSSDC Master Catalog

Two Line Element Set (TLE):
1 43763U 18099F   19170.86796549 -.00000470  00000-0 -37100-4 0  9990
2 43763  97.7435 242.9321 0013082 329.4823  30.5633 14.95538744 29616
Source of the keplerian elements: AFSPC